This is the latest recevied weather packets stored in our database for station/object EA5FOG-11. If no packets are shown the sender has not sent any weather packets the latest 10 day(s).
| Time | Temp. | Humidity | Pressure | Rain* | Wind** | Luminosity | Snow |
|---|---|---|---|---|---|---|---|
| 1777511022 | 15° C | 63% | 956.8 hPa | - | - | - | - |
| 1777510121 | 15° C | 63% | 956.9 hPa | - | - | - | - |
| 1777509220 | 15° C | 63% | 956.9 hPa | - | - | - | - |
| 1777508319 | 15° C | 63% | 956.9 hPa | - | - | - | - |
| 1777507418 | 15.56° C | 62% | 956.8 hPa | - | - | - | - |
| 1777506518 | 15.56° C | 62% | 956.7 hPa | - | - | - | - |
| 1777505617 | 15° C | 62% | 956.7 hPa | - | - | - | - |
| 1777503834 | 15° C | 61% | 956.4 hPa | - | - | - | - |
| 1777502933 | 15° C | 61% | 956.3 hPa | - | - | - | - |
| 1777502032 | 15.56° C | 61% | 956.1 hPa | - | - | - | - |
| 1777501132 | 15.56° C | 60% | 956.1 hPa | - | - | - | - |
| 1777500231 | 16.11° C | 60% | 956 hPa | - | - | - | - |
| 1777499330 | 16.11° C | 60% | 955.9 hPa | - | - | - | - |
| 1777498429 | 15.56° C | 59% | 955.8 hPa | - | - | - | - |
| 1777497529 | 16.11° C | 59% | 955.7 hPa | - | - | - | - |
| 1777496628 | 16.67° C | 58% | 955.5 hPa | - | - | - | - |
| 1777495727 | 16.67° C | 58% | 955.4 hPa | - | - | - | - |
| 1777494826 | 16.67° C | 57% | 955.3 hPa | - | - | - | - |
| 1777493925 | 17.22° C | 56% | 955.2 hPa | - | - | - | - |
| 1777493024 | 17.78° C | 56% | 955.1 hPa | - | - | - | - |
| 1777492124 | 18.33° C | 55% | 954.9 hPa | - | - | - | - |
| 1777491223 | 18.33° C | 55% | 955 hPa | - | - | - | - |
| 1777490322 | 18.33° C | 55% | 954.8 hPa | - | - | - | - |
| 1777489421 | 18.33° C | 54% | 954.6 hPa | - | - | - | - |
| 1777488520 | 18.33° C | 54% | 954.2 hPa | - | - | - | - |
* Rain since midnight (hover to see other rain measurements)
** Current wind speed in m/s (hover to see current wind gust speed)